Zurück zum Katalog

DELTA 1 DEB

AktivSSO
NORAD 12167·DEBRIS·🇺🇸 United States

Gestartet Mar 5, 1978 von Vandenberg Space Force Base

Loading…

Nächste Überflüge (nächste 24 Stunden)

TLE

AktuellSource: Space-Track

Epoche: Sep 14, 2026, 08:03 UTC

1 12167U 78026G   26257.33607137  .00000340  00000-0  17285-3 0  9995
2 12167  98.7640 202.6614 0157268 290.5629 222.5933 14.16150605344507

Verfolge DELTA 1 DEB in Echtzeit mit AllMySat

Download on the App Store